Date String (YYYY-MM-DD hh:mm:ss) UTC,Instrument flags,absolute air pressure of the measurement (hPa),sample flow rate (lpm),inlet stack bypass flow (lpm),air temperature of the measurement (°C),ambient temperature measured by the external sensor (°C),aerosol sample conditioner tube jacket temperature (°C),OPC LED temperature (°C),internal box temperature (°C),relative humidity of the measurement (%),span deviation,mass concentration of particles derived from Lorenz-Mie calculation of OPC scattering (μg/m³),mass concentration of particles derived from Lorenz-Mie calculation of OPC scattering (μg/m³),mass concentration of particles derived from Lorenz-Mie calculation of OPC scattering (μg/m³)
DateTimeUTC,F1_M11,P_M11,Q1_M11,Q2_M11,T1_M11,T2_M11,T3_M11,T4_M11,T5_M11,U1_M11,ZSPAN_M11,X0_M11,X2_M11,X1_M11
2024-04-03 04:00:00,SystemResetWarning,0831.5,5.00,000.00,024.1,023.2,000.0,032.8,026.0,10.8,0000.0,0005.40,0002.54,0001.48
2024-04-03 04:01:00,SystemResetWarning,0831.5,4.99,000.00,024.1,023.2,000.0,032.8,026.0,10.8,0000.0,0005.29,0002.48,0001.48
2024-04-03 04:02:00,SystemResetWarning,0831.5,4.99,000.00,024.1,023.2,000.0,032.8,026.0,10.8,0000.0,0005.33,0002.50,0001.47
2024-04-03 04:03:00,SystemResetWarning,0831.4,4.99,000.00,024.1,023.2,000.0,032.8,026.0,10.9,0000.0,0005.27,0002.47,0001.48
2024-04-03 04:04:00,SystemResetWarning,0831.5,5.00,000.00,024.1,023.2,000.0,032.8,026.0,10.8,0000.0,0005.46,0002.51,0001.49
2024-04-03 04:05:00,SystemResetWarning,0831.4,5.00,000.00,024.1,023.2,000.0,032.8,026.0,10.8,0000.0,0005.48,0002.51,0001.48
2024-04-03 04:06:00,SystemResetWarning,0831.5,5.00,000.00,024.1,023.2,000.0,032.7,026.0,10.8,0000.0,0005.75,0002.59,0001.49
2024-04-03 04:07:00,SystemResetWarning,0831.4,4.99,000.00,024.1,023.2,000.0,032.7,026.0,10.8,0000.0,0005.87,0002.63,0001.50
2024-04-03 04:08:00,SystemResetWarning,0831.4,5.00,000.00,024.1,023.2,000.0,032.7,025.9,10.6,0000.0,0005.91,0002.65,0001.49
2024-04-03 04:09:00,SystemResetWarning,0831.4,5.00,000.00,024.1,023.2,000.0,032.7,025.9,10.8,0000.0,0005.78,0002.60,0001.50
2024-04-03 04:10:00,SystemResetWarning,0831.4,5.00,000.00,024.1,023.1,000.0,032.7,025.9,10.8,0000.0,0004.68,0002.51,0001.50
2024-04-03 04:11:00,SystemResetWarning,0831.4,5.00,000.00,024.1,023.1,000.0,032.7,025.9,10.8,0000.0,0004.52,0002.47,0001.49
2024-04-03 04:12:00,SystemResetWarning,0831.4,5.00,000.00,024.0,023.1,000.0,032.7,025.9,10.8,0000.0,0004.74,0002.52,0001.49
2024-04-03 04:13:00,SystemResetWarning,0831.4,5.00,000.00,024.0,023.1,000.0,032.7,025.9,10.7,0000.0,0004.77,0002.53,0001.49
2024-04-03 04:14:00,SystemResetWarning,0831.4,5.00,000.00,024.0,023.0,000.0,032.7,025.9,10.7,0000.0,0004.83,0002.55,0001.48
2024-04-03 04:15:00,SystemResetWarning,0831.3,5.00,000.00,024.0,023.0,000.0,032.7,025.9,10.7,0000.0,0004.68,0002.53,0001.48
2024-04-03 04:16:00,SystemResetWarning,0831.3,5.00,000.00,024.0,023.0,000.0,032.7,025.8,10.7,0000.0,0004.68,0002.51,0001.48
2024-04-03 04:17:00,SystemResetWarning,0831.3,5.00,000.00,024.0,023.0,000.0,032.7,025.8,10.8,0000.0,0004.45,0002.45,0001.47
2024-04-03 04:18:00,SystemResetWarning,0831.3,5.00,000.00,024.0,022.9,000.0,032.7,025.7,10.8,0000.0,0004.50,0002.45,0001.46
2024-04-03 04:19:00,SystemResetWarning,0831.3,5.01,000.00,024.0,022.9,000.0,032.6,025.7,10.8,0000.0,0004.53,0002.45,0001.46
2024-04-03 04:20:00,SystemResetWarning,0831.3,5.00,000.00,024.0,022.9,000.0,032.6,025.7,10.8,0000.0,0004.46,0002.41,0001.45
2024-04-03 04:21:00,SystemResetWarning,0831.3,5.00,000.00,023.9,022.9,000.0,032.6,025.7,10.9,0000.0,0004.41,0002.41,0001.45
2024-04-03 04:22:00,SystemResetWarning,0831.3,5.01,000.00,023.9,022.9,000.0,032.6,025.7,10.9,0000.0,0004.41,0002.41,0001.45
2024-04-03 04:23:00,SystemResetWarning,0831.3,4.99,000.00,023.9,022.9,000.0,032.6,025.7,10.9,0000.0,0004.20,0002.35,0001.43
2024-04-03 04:24:00,SystemResetWarning,0831.3,5.00,000.00,023.9,022.9,000.0,032.6,025.7,10.9,0000.0,0004.21,0002.36,0001.45
2024-04-03 04:25:00,SystemResetWarning,0831.3,5.00,000.00,023.9,022.8,000.0,032.6,025.7,11.0,0000.0,0004.33,0002.39,0001.45
2024-04-03 04:26:00,SystemResetWarning,0831.2,5.00,000.00,023.9,022.8,000.0,032.6,025.6,11.0,0000.0,0004.34,0002.40,0001.46
2024-04-03 04:27:00,SystemResetWarning,0831.3,5.00,000.00,023.9,022.8,000.0,032.5,025.6,11.1,0000.0,0004.19,0002.35,0001.46
2024-04-03 04:28:00,SystemResetWarning,0831.2,5.00,000.00,023.8,022.8,000.0,032.5,025.6,11.1,0000.0,0004.10,0002.32,0001.46
2024-04-03 04:29:00,SystemResetWarning,0831.3,5.00,000.00,023.8,022.8,000.0,032.5,025.6,11.1,0000.0,0004.28,0002.35,0001.47
2024-04-03 04:30:00,SystemResetWarning,0831.3,4.99,000.00,023.8,022.8,000.0,032.5,025.6,11.1,0000.0,0004.62,0002.32,0001.48
2024-04-03 04:31:00,SystemResetWarning,0831.3,5.00,000.00,023.8,022.8,000.0,032.5,025.6,11.1,0000.0,0006.20,0002.31,0001.47
2024-04-03 04:32:00,SystemResetWarning,0831.3,5.00,000.00,023.8,022.8,000.0,032.5,025.6,11.1,0000.0,0006.14,0002.30,0001.47
2024-04-03 04:33:00,SystemResetWarning,0831.3,5.00,000.00,023.8,022.8,000.0,032.5,025.6,11.1,0000.0,0006.00,0002.30,0001.47
2024-04-03 04:34:00,SystemResetWarning,0831.2,5.00,000.00,023.8,022.8,000.0,032.5,025.6,11.1,0000.0,0006.01,0002.30,0001.49
2024-04-03 04:35:00,SystemResetWarning,0831.3,5.01,000.00,023.8,022.9,000.0,032.5,025.6,11.0,0000.0,0005.89,0002.26,0001.48
2024-04-03 04:36:00,SystemResetWarning,0831.3,4.99,000.00,023.8,022.9,000.0,032.5,025.6,10.9,0000.0,0006.73,0002.23,0001.47
2024-04-03 04:37:00,SystemResetWarning,0831.2,5.01,000.00,023.8,022.9,000.0,032.5,025.6,10.9,0000.0,0007.45,0002.23,0001.47
2024-04-03 04:38:00,SystemResetWarning,0831.2,5.00,000.00,023.8,023.0,000.0,032.5,025.6,11.0,0000.0,0007.42,0002.20,0001.46
2024-04-03 04:39:00,SystemResetWarning,0831.2,5.00,000.00,023.8,023.0,000.0,032.4,025.6,11.1,0000.0,0007.44,0002.21,0001.46
2024-04-03 04:40:00,SystemResetWarning,0831.2,5.01,000.00,023.8,023.0,000.0,032.4,025.6,11.1,0000.0,0007.31,0002.19,0001.47
2024-04-03 04:41:00,SystemResetWarning,0831.2,5.00,000.00,023.8,023.0,000.0,032.4,025.6,11.1,0000.0,0007.00,0002.18,0001.46
2024-04-03 04:42:00,SystemResetWarning,0831.2,5.00,000.00,023.8,023.0,000.0,032.4,025.6,11.1,0000.0,0005.14,0002.11,0001.45
2024-04-03 04:43:00,SystemResetWarning,0831.2,5.00,000.00,023.8,023.0,000.0,032.4,025.7,11.0,0000.0,0005.66,0002.06,0001.44
2024-04-03 04:44:00,SystemResetWarning,0831.2,4.99,000.00,023.8,023.0,000.0,032.4,025.7,11.0,0000.0,0005.72,0002.08,0001.44
2024-04-03 04:45:00,SystemResetWarning,0831.2,4.98,000.00,023.8,023.0,000.0,032.4,025.7,11.0,0000.0,0005.62,0002.02,0001.42
2024-04-03 04:46:00,SystemResetWarning,0831.1,5.01,000.00,023.8,023.0,000.0,032.4,025.7,11.1,0000.0,0005.63,0002.02,0001.41
2024-04-03 04:47:00,SystemResetWarning,0831.1,5.00,000.00,023.8,023.0,000.0,032.4,025.7,11.2,0000.0,0004.63,0001.99,0001.41
2024-04-03 04:48:00,SystemResetWarning,0831.1,5.00,000.00,023.8,023.0,000.0,032.4,025.7,11.3,0000.0,0003.57,0001.93,0001.41
2024-04-03 04:49:00,SystemResetWarning,0831.1,5.00,000.00,023.9,023.0,000.0,032.4,025.7,11.2,0000.0,0003.58,0001.91,0001.40
2024-04-03 04:50:00,SystemResetWarning,0831.2,5.00,000.00,023.8,023.0,000.0,032.4,025.7,11.1,0000.0,0003.54,0001.89,0001.37
2024-04-03 04:51:00,SystemResetWarning,0831.1,5.00,000.00,023.9,023.0,000.0,032.4,025.7,11.1,0000.0,0003.49,0001.86,0001.36
2024-04-03 04:52:00,SystemResetWarning,0831.2,5.00,000.00,023.9,023.0,000.0,032.4,025.7,11.1,0000.0,0003.35,0001.80,0001.36
2024-04-03 04:53:00,SystemResetWarning,0831.2,5.00,000.00,023.8,023.0,000.0,032.4,025.7,11.1,0000.0,0003.42,0001.83,0001.37
2024-04-03 04:54:00,SystemResetWarning,0831.1,5.00,000.00,023.8,023.0,000.0,032.4,025.6,11.1,0000.0,0002.95,0001.87,0001.37
2024-04-03 04:55:00,SystemResetWarning,0831.0,5.00,000.00,023.8,023.0,000.0,032.4,025.6,11.2,0000.0,0002.97,0001.90,0001.37
2024-04-03 04:56:00,SystemResetWarning,0831.0,5.00,000.00,023.8,022.9,000.0,032.4,025.6,11.2,0000.0,0003.14,0001.95,0001.37
2024-04-03 04:57:00,SystemResetWarning,0830.9,5.00,000.00,023.8,022.9,000.0,032.4,025.6,11.3,0000.0,0003.09,0001.93,0001.37
2024-04-03 04:58:00,SystemResetWarning,0830.9,5.01,000.00,023.8,022.9,000.0,032.4,025.6,11.3,0000.0,0003.10,0001.94,0001.37
2024-04-03 04:59:00,SystemResetWarning,0830.9,5.00,000.00,023.8,022.9,000.0,032.4,025.6,11.3,0000.0,0003.07,0001.92,0001.36
